This demonstration page uses our WeatherBlox Daily Observations layout. Learn more.

Left ArrowRight Arrow

Hourly Observations for April 12, 2022

Temp ( °F °C ) Dew Point ( °F °C ) Humidity (%) Winds ( mph kmh ) Pressure ( in mb ) Visibility ( mi km ) Precip ( " mm )
12:53 am 00:53 Clear 52 11.1 29 -1.7 41 41 SE 17 28 29.62 1003 9 14 0.00 0.00
1:53 am 01:53 Clear 52 11.1 35 1.7 53 53 SSE 20 31 29.58 1002 8 13 0.00 0.00
2:53 am 02:53 Clear 51 10.6 37 2.8 59 59 SE 18 30 29.54 1001 8 13 0.00 0.00
3:53 am 03:53 Mostly Clear 51 10.6 41 5 69 69 SE 18 30 29.50 999 10 16 0.00 0.00
4:53 am 04:53 Clear 50 10 42 5.6 74 74 SE 21 33 29.45 997 10 16 0.00 0.00
5:53 am 05:53 Mostly Cloudy 51 10.6 45 7.2 80 80 SE 23 37 29.41 996 10 16 0.00 0.00
6:13 am 06:13 Cloudy 51 10.6 46 7.8 83 83 SSE 22 35 29.43 997 10 16 0.00 0.00
6:53 am 06:53 Cloudy 51 10.6 47 8.3 86 86 SSE 16 26 29.39 995 7 11 0.00 0.00
7:09 am 07:09 Cloudy with Mist and Fog 52 11 48 9 88 88 SSE 17 28 29.39 995 5 8 0.00 0.00
7:36 am 07:36 Cloudy with Mist and Fog 51 10.6 50 10 96 96 SSE 16 26 29.39 995 3 4 0.00 0.00
7:45 am 07:45 Cloudy with Mist and Fog 52 11.1 51 10.6 97 97 SSE 15 24 29.38 995 2 3 0.00 0.00
7:53 am 07:53 Cloudy with Mist and Fog 52 11.1 51 10.6 97 97 SSE 14 22 29.36 994 2 2 0.00 0.00
8:12 am 08:12 Cloudy with Mist and Fog 54 12.2 53 11.7 97 97 SSE 20 31 29.36 994 3 4 0.00 0.00
8:19 am 08:19 Cloudy with Mist and Fog 54 12.2 53 11.7 97 97 SSE 21 33 29.35 994 4 6 0.00 0.00
8:33 am 08:33 Cloudy with Mist and Fog 56 13.3 54 12.2 93 93 S 21 33 29.33 993 5 8 0.00 0.00
8:53 am 08:53 Cloudy with Mist and Fog 57 13.9 55 12.8 93 93 S 20 31 29.32 993 6 10 0.00 0.00
9:02 am 09:02 Cloudy with Mist and Fog 58 14.4 55 12.8 90 90 S 17 28 29.31 992 6 10 0.00 0.00
9:53 am 09:53 Mostly Cloudy 63 17.2 55 12.8 76 76 S 20 31 29.29 992 8 13 0.00 0.00
10:08 am 10:08 Mostly Sunny 66 18.9 55 12.8 68 68 S 20 31 29.24 990 9 14 0.00 0.00
10:53 am 10:53 Sunny 71 21.7 53 11.7 53 53 S 20 31 29.26 991 10 16 0.00 0.00
11:53 am 11:53 Sunny 76 24.4 49 9.4 39 39 S 17 28 29.24 990 10 16 0.00 0.00
12:53 pm 12:53 Sunny 79 26.1 44 6.7 29 29 S 22 35 29.19 989 10 16 0.00 0.00
1:53 pm 13:53 Sunny 84 28.9 38 3.3 19 19 SSW 23 37 29.16 988 10 16 0.00 0.00
2:53 pm 14:53 Sunny 88 31.1 31 -0.6 13 13 SSW 23 37 29.14 987 10 16 0.00 0.00
3:53 pm 15:53 Sunny 90 32.2 24 -4.4 9 9 SW 21 33 29.10 986 9 14 0.00 0.00
4:53 pm 16:53 Sunny 87 30.6 28 -2.2 12 12 W 18 30 29.12 986 10 16 0.00 0.00
5:53 pm 17:53 Sunny 79 26.1 31 -0.6 17 17 NW 32 52 29.19 989 10 16 0.00 0.00
6:26 pm 18:26 Mostly Cloudy with Haze 72 22.2 34 1.1 25 25 NW 43 69 29.20 989 4 6 0.00 0.00
6:49 pm 18:49 Mostly Sunny 66 19 34 1 30 30 NNW 35 56 29.26 991 8 13 0.00 0.00
6:53 pm 18:53 Mostly Sunny 66 18.9 33 0.6 29 29 NW 31 50 29.30 992 10 16 0.00 0.00
7:53 pm 19:53 Sunny 60 15.6 29 -1.7 31 31 NW 36 57 29.34 994 9 14 0.00 0.00
8:53 pm 20:53 Hazy 54 12.2 24 -4.4 31 31 NW 40 65 29.35 994 4 6 0.00 0.00
9:32 pm 21:32 Mostly Cloudy with Haze 51 10.6 20 -6.7 29 29 NW 41 67 29.45 997 4 6 0.00 0.00
9:49 pm 21:49 Partly Cloudy 50 10 21 -6 32 32 NW 29 46 29.50 999 9 14 0.00 0.00
9:53 pm 21:53 Mostly Clear 50 10 21 -6.1 32 32 NW 30 48 29.48 998 10 16 0.00 0.00
10:53 pm 22:53 Clear 46 7.8 21 -6.1 37 37 NNW 29 46 29.60 1002 10 16 0.00 0.00
11:53 pm 23:53 Partly Cloudy 43 6.1 21 -6.1 42 42 NNW 24 39 29.66 1004 10 16 0.00 0.00

Powered by AerisWeather